DW6160 Weather Reports


Display with metric or nautical units.
time (UTC)temp
F
wind
direction
speed
MPH
gust
MPH
rain 1hr
in
rain 24hr
in
rain mn
in
humidity
%
barometer
mb
20180622051017 63 15 0.0 0.0 0.00 0.00 0.00 84 1011.9
20180622050526 63 15 0.0 0.0 0.00 0.00 0.00 84 1012.0
20180622050019 64 15 0.0 1.0 0.00 0.00 0.00 83 1012.0
20180622045529 64 15 0.0 0.0 0.00 0.00 0.00 83 1012.0
20180622045017 64 15 0.0 0.0 0.00 0.00 0.00 83 1011.9
20180622044530 64 15 0.0 0.0 0.00 0.00 0.00 83 1011.7
20180622044021 64 15 0.0 0.0 0.00 0.00 0.00 83 1011.7
20180622043530 65 15 0.0 0.0 0.00 0.00 0.00 82 1011.7
20180622043020 65 15 0.0 0.0 0.00 0.00 0.00 82 1011.6
20180622042528 65 15 0.0 0.0 0.00 0.00 0.00 82 1011.7
20180622042035 65 15 0.0 0.0 0.00 0.00 0.00 82 1011.7
20180622041521 65 15 0.0 0.0 0.00 0.00 0.00 82 1011.6
20180622041031 65 15 0.0 0.0 0.00 0.00 0.00 82 1011.6
20180622040522 65 15 0.0 0.0 0.00 0.00 0.00 82 1011.6
20180622040030 65 15 0.0 0.0 0.00 0.00 0.00 82 1011.5
20180622035520 65 15 0.0 1.0 0.00 0.00 0.00 82 1011.5
20180622035028 65 15 0.0 1.0 0.00 0.00 0.00 81 1011.5
20180622034533 66 15 0.0 0.0 0.00 0.00 0.00 81 1011.4
20180622034029 66 15 0.0 0.0 0.00 0.00 0.00 80 1011.5
20180622033517 66 15 0.0 0.0 0.00 0.00 0.00 80 1011.4
20180622033029 66 15 0.0 0.0 0.00 0.00 0.00 78 1011.3
20180622032521 67 15 0.0 0.0 0.00 0.00 0.00 77 1011.2
20180622032030 67 15 0.0 0.0 0.00 0.00 0.00 76 1011.2
20180622031523 68 15 0.0 0.0 0.00 0.00 0.00 75 1011.1
20180622031029 68 15 0.0 0.0 0.00 0.00 0.00 74 1011.1
20180622030522 69 15 0.0 0.0 0.00 0.00 0.00 73 1011.1
20180622030029 69 15 0.0 0.0 0.00 0.00 0.00 73 1011.2
20180622025518 69 15 0.0 0.0 0.00 0.00 0.00 71 1011.2
20180622025026 70 15 0.0 0.0 0.00 0.00 0.00 71 1011.1
20180622024535 70 15 0.0 0.0 0.00 0.00 0.00 69 1011.1
20180622024026 71 15 0.0 0.0 0.00 0.00 0.00 69 1011.1
20180622023517 71 15 0.0 0.0 0.00 0.00 0.00 68 1011.1
20180622023025 71 15 0.0 0.0 0.00 0.00 0.00 67 1011.0
20180622022534 72 15 0.0 3.0 0.00 0.00 0.00 66 1011.0
20180622022019 72 15 0.0 3.0 0.00 0.00 0.00 66 1010.9
20180622021530 72 15 0.0 2.0 0.00 0.00 0.00 65 1010.9
20180622021018 73 15 0.0 3.0 0.00 0.00 0.00 65 1011.0
20180622020529 73 15 1.0 4.0 0.00 0.00 0.00 64 1011.0
20180622020018 73 15 1.0 4.0 0.00 0.00 0.00 64 1011.0
20180622015530 73 11 1.0 4.0 0.00 0.00 0.00 63 1010.9
20180622015016 74 11 2.0 4.0 0.00 0.00 0.00 62 1010.9
20180622014528 74 11 1.0 4.0 0.00 0.00 0.00 61 1010.9
20180622014019 74 9 1.0 6.0 0.00 0.00 0.00 61 1010.9
20180622013529 75 355 3.0 6.0 0.00 0.00 0.00 60 1010.9
20180622013017 75 24 3.0 11.0 0.00 0.00 0.00 59 1010.9
20180622012525 75 19 4.0 11.0 0.00 0.00 0.00 58 1010.8
20180622012033 75 26 2.0 8.0 0.00 0.00 0.00 58 1010.9
20180622011520 76 36 3.0 13.0 0.00 0.00 0.00 57 1010.9
20180622011034 76 38 4.0 13.0 0.00 0.00 0.00 57 1010.8
20180622010522 76 49 6.0 13.0 0.00 0.00 0.00 57 1010.8
20180622010035 76 337 2.0 12.0 0.00 0.00 0.00 56 1010.7
20180622005523 77 31 5.0 12.0 0.00 0.00 0.00 55 1010.6
20180622005034 78 20 5.0 11.0 0.00 0.00 0.00 54 1010.6
20180622004519 78 28 4.0 12.0 0.00 0.00 0.00 54 1010.6
20180622004026 79 25 4.0 13.0 0.00 0.00 0.00 53 1010.7
20180622003536 79 355 6.0 13.0 0.00 0.00 0.00 53 1010.6
20180622003023 79 19 4.0 13.0 0.00 0.00 0.00 53 1010.6
20180622002518 80 18 5.0 13.0 0.00 0.00 0.00 51 1010.6
20180622002026 80 23 6.0 12.0 0.00 0.00 0.00 51 1010.5
20180622001514 80 30 4.0 12.0 0.00 0.00 0.00 52 1010.5
20180622001024 80 9 4.0 10.0 0.00 0.00 0.00 52 1010.5
20180622000534 80 332 4.0 14.0 0.00 0.00 0.00 51 1010.5
20180622000020 80 51 8.0 17.0 0.00 0.00 0.00 49 1010.4
20180621235528 81 32 7.0 17.0 0.00 0.00 0.00 49 1010.4
20180621235017 82 26 6.0 15.0 0.00 0.00 0.00 48 1010.4
20180621234530 83 49 6.0 14.0 0.00 0.00 0.00 48 1010.3
20180621234022 83 38 6.0 16.0 0.00 0.00 0.00 47 1010.3
20180621233529 83 282 7.0 15.0 0.00 0.00 0.00 45 1010.2
20180621233020 84 11 5.0 12.0 0.00 0.00 0.00 44 1010.1
20180621232529 84 308 6.0 12.0 0.00 0.00 0.00 43 1010.2
20180621232019 85 360 3.0 9.0 0.00 0.00 0.00 43 1010.0
20180621231532 84 333 5.0 17.0 0.00 0.00 0.00 42 1010.0
20180621231033 84 21 8.0 17.0 0.00 0.00 0.00 41 1010.1
20180621230524 84 355 6.0 14.0 0.00 0.00 0.00 41 1010.1
20180621230015 84 303 6.0 14.0 0.00 0.00 0.00 41 1010.1
20180621225524 85 325 7.0 15.0 0.00 0.00 0.00 40 1010.0
20180621225033 85 284 6.0 17.0 0.00 0.00 0.00 41 1010.0
20180621224523 84 329 6.0 17.0 0.00 0.00 0.00 42 1009.9
20180621224034 84 300 6.0 18.0 0.00 0.00 0.00 40 1009.9
20180621223524 85 252 6.0 18.0 0.00 0.00 0.00 40 1010.0
20180621223030 85 321 6.0 15.0 0.00 0.00 0.00 40 1010.1
20180621222521 85 315 7.0 20.0 0.00 0.00 0.00 39 1010.1
20180621222027 85 287 7.0 20.0 0.00 0.00 0.00 38 1010.0
20180621221520 85 295 7.0 14.0 0.00 0.00 0.00 38 1010.0
20180621221027 86 326 6.0 16.0 0.00 0.00 0.00 39 1010.0
20180621220517 86 355 7.0 16.0 0.00 0.00 0.00 38 1010.0
20180621220026 86 339 7.0 18.0 0.00 0.00 0.00 37 1010.0
20180621215517 86 312 5.0 17.0 0.00 0.00 0.00 40 1009.9
20180621215025 86 278 8.0 17.0 0.00 0.00 0.00 38 1010.0
20180621214533 86 280 6.0 15.0 0.00 0.00 0.00 40 1009.9
20180621214023 85 342 7.0 18.0 0.00 0.00 0.00 39 1009.9
20180621213536 85 292 10.0 18.0 0.00 0.00 0.00 38 1010.0
20180621213027 85 299 11.0 18.0 0.00 0.00 0.00 38 1010.0
20180621212517 85 293 9.0 18.0 0.00 0.00 0.00 38 1010.0
20180621212024 86 292 10.0 17.0 0.00 0.00 0.00 37 1009.9
20180621211535 86 294 8.0 17.0 0.00 0.00 0.00 38 1010.0
20180621211023 86 298 7.0 19.0 0.00 0.00 0.00 38 1010.1
20180621210514 85 311 7.0 18.0 0.00 0.00 0.00 39 1010.0
20180621210026 85 295 7.0 19.0 0.00 0.00 0.00 39 1010.1
20180621205533 85 327 10.0 19.0 0.00 0.00 0.00 38 1010.1
20180621205021 85 246 9.0 18.0 0.00 0.00 0.00 39 1010.1
20180621204534 85 313 7.0 18.0 0.00 0.00 0.00 40 1010.2
20180621204021 86 340 9.0 18.0 0.00 0.00 0.00 38 1010.3
20180621203531 85 286 11.0 17.0 0.00 0.00 0.00 37 1010.1
20180621203021 85 313 10.0 17.0 0.00 0.00 0.00 38 1010.3
20180621202532 85 281 7.0 15.0 0.00 0.00 0.00 38 1010.2
20180621202019 85 280 9.0 14.0 0.00 0.00 0.00 38 1010.2
20180621201529 85 318 8.0 20.0 0.00 0.00 0.00 39 1010.3
20180621201019 84 332 9.0 20.0 0.00 0.00 0.00 39 1010.3
20180621200528 84 309 8.0 18.0 0.00 0.00 0.00 39 1010.2
20180621200023 84 285 8.0 17.0 0.00 0.00 0.00 38 1010.3
20180621195533 85 342 8.0 16.0 0.00 0.00 0.00 38 1010.3
20180621195021 85 318 9.0 18.0 0.00 0.00 0.00 38 1010.4
20180621194534 84 314 10.0 21.0 0.00 0.00 0.00 38 1010.4
20180621194020 84 311 8.0 20.0 0.00 0.00 0.00 39 1010.5
20180621193528 84 24 9.0 23.0 0.00 0.00 0.00 38 1010.6
20180621193019 84 243 10.0 19.0 0.00 0.00 0.00 38 1010.5
20180621192529 84 317 9.0 19.0 0.00 0.00 0.00 40 1010.6
20180621192021 84 327 9.0 20.0 0.00 0.00 0.00 41 1010.6
20180621191530 84 288 10.0 20.0 0.00 0.00 0.00 40 1010.8
20180621191016 84 300 11.0 19.0 0.00 0.00 0.00 40 1010.8
20180621190525 84 330 9.0 18.0 0.00 0.00 0.00 41 1010.8
20180621190035 84 355 8.0 19.0 0.00 0.00 0.00 42 1010.9
20180621185525 83 301 8.0 19.0 0.00 0.00 0.00 43 1010.9
20180621185014 83 313 11.0 19.0 0.00 0.00 0.00 42 1010.9
20180621184525 83 225 9.0 17.0 0.00 0.00 0.00 41 1010.9
20180621184036 83 300 7.0 18.0 0.00 0.00 0.00 43 1011.0
20180621183530 83 313 9.0 20.0 0.00 0.00 0.00 42 1011.0
20180621183018 83 311 10.0 20.0 0.00 0.00 0.00 42 1011.2
20180621182528 83 311 9.0 18.0 0.00 0.00 0.00 42 1011.2
20180621182018 82 309 9.0 18.0 0.00 0.00 0.00 41 1011.2
20180621181529 82 306 8.0 17.0 0.00 0.00 0.00 44 1011.2
20180621181020 82 250 8.0 17.0 0.00 0.00 0.00 43 1011.2
20180621180529 82 322 9.0 22.0 0.00 0.00 0.00 43 1011.1
20180621180021 82 306 11.0 22.0 0.00 0.00 0.00 42 1011.3
20180621175517 82 40 8.0 18.0 0.00 0.00 0.00 44 1011.4
20180621175024 82 299 8.0 19.0 0.00 0.00 0.00 44 1011.4
20180621174535 81 319 9.0 22.0 0.00 0.00 0.00 43 1011.4
20180621174021 81 288 11.0 22.0 0.00 0.00 0.00 44 1011.4
20180621173533 81 300 9.0 20.0 0.00 0.00 0.00 45 1011.5
20180621173021 81 313 10.0 20.0 0.00 0.00 0.00 44 1011.7
20180621172529 81 288 8.0 21.0 0.00 0.00 0.00 46 1011.7
20180621172019 80 283 10.0 21.0 0.00 0.00 0.00 45 1011.7
20180621171533 80 286 8.0 17.0 0.00 0.00 0.00 46 1011.7
20180621171025 80 297 8.0 17.0 0.00 0.00 0.00 48 1011.9
20180621170518 80 303 7.0 21.0 0.00 0.00 0.00 48 1011.9
20180621170027 80 315 8.0 21.0 0.00 0.00 0.00 48 1012.1
20180621165516 80 304 8.0 17.0 0.00 0.00 0.00 49 1012.0
20180621165024 79 264 9.0 22.0 0.00 0.00 0.00 49 1012.1
20180621164533 79 294 10.0 19.0 0.00 0.00 0.00 49 1012.3
20180621164021 78 311 8.0 17.0 0.00 0.00 0.00 50 1012.3
20180621163514 79 309 11.0 17.0 0.00 0.00 0.00 49 1012.4
20180621163023 79 298 8.0 22.0 0.00 0.00 0.00 51 1012.3
20180621162519 79 313 10.0 22.0 0.00 0.00 0.00 49 1012.4
20180621162026 78 236 11.0 21.0 0.00 0.00 0.00 50 1012.4
20180621161516 78 315 9.0 16.0 0.00 0.00 0.00 51 1012.5
20180621161028 78 292 8.0 19.0 0.00 0.00 0.00 52 1012.4
20180621160519 78 250 11.0 19.0 0.00 0.00 0.00 52 1012.4
20180621160027 77 296 8.0 18.0 0.00 0.00 0.00 53 1012.6
20180621155536 77 306 10.0 18.0 0.00 0.00 0.00 52 1012.6
20180621155026 77 294 8.0 21.0 0.00 0.00 0.00 54 1012.7
20180621154533 77 306 9.0 21.0 0.00 0.00 0.00 53 1012.7
20180621154024 77 288 9.0 15.0 0.00 0.00 0.00 53 1012.7
20180621153533 77 294 7.0 17.0 0.00 0.00 0.00 55 1012.7
20180621153021 77 279 8.0 17.0 0.00 0.00 0.00 54 1012.9
20180621152528 77 265 11.0 17.0 0.00 0.00 0.00 54 1012.8
20180621152016 76 296 6.0 20.0 0.00 0.00 0.00 57 1012.8
20180621151526 76 296 7.0 20.0 0.00 0.00 0.00 57 1012.8
20180621151036 76 295 9.0 18.0 0.00 0.00 0.00 56 1012.9
20180621150526 75 275 9.0 16.0 0.00 0.00 0.00 57 1013.0
20180621150017 75 283 8.0 16.0 0.00 0.00 0.00 58 1013.0
20180621145528 75 281 7.0 18.0 0.00 0.00 0.00 59 1013.1
20180621145037 74 304 9.0 15.0 0.00 0.00 0.00 59 1013.2
20180621144525 74 282 8.0 15.0 0.00 0.00 0.00 60 1013.1
20180621144035 74 290 6.0 15.0 0.00 0.00 0.00 62 1013.2
20180621143523 74 310 7.0 13.0 0.00 0.00 0.00 62 1013.3
20180621143033 74 333 6.0 13.0 0.00 0.00 0.00 64 1013.3
20180621142523 73 297 7.0 12.0 0.00 0.00 0.00 64 1013.3
20180621142037 73 292 5.0 11.0 0.00 0.00 0.00 65 1013.3
20180621141527 72 284 5.0 13.0 0.00 0.00 0.00 65 1013.3
20180621141038 72 260 7.0 13.0 0.00 0.00 0.00 66 1013.3
20180621140524 72 313 7.0 14.0 0.00 0.00 0.00 67 1013.4
20180621140038 71 323 7.0 14.0 0.00 0.00 0.00 66 1013.4
20180621135529 71 284 7.0 12.0 0.00 0.01 0.00 68 1013.3
20180621135017 71 308 6.0 11.0 0.00 0.01 0.00 70 1013.4
20180621134530 70 306 6.0 13.0 0.00 0.01 0.00 71 1013.3
20180621134019 70 309 6.0 12.0 0.00 0.01 0.00 72 1013.3
20180621133529 69 300 6.0 10.0 0.00 0.01 0.00 72 1013.4
20180621133021 69 324 5.0 10.0 0.00 0.01 0.00 73 1013.4
20180621132533 69 301 6.0 11.0 0.00 0.01 0.00 74 1013.4
20180621132025 68 309 5.0 13.0 0.00 0.01 0.00 76 1013.3
20180621131535 68 293 6.0 13.0 0.00 0.01 0.00 76 1013.3
20180621131022 67 314 7.0 11.0 0.00 0.01 0.00 77 1013.3
20180621130532 67 301 5.0 9.0 0.00 0.01 0.00 78 1013.3
20180621130023 66 299 4.0 8.0 0.00 0.01 0.00 80 1013.2
20180621125533 66 294 3.0 11.0 0.00 0.01 0.00 81 1013.3
20180621125024 66 294 5.0 11.0 0.00 0.01 0.00 81 1013.4
20180621124538 65 304 4.0 9.0 0.00 0.01 0.00 82 1013.5
20180621124027 65 304 4.0 10.0 0.00 0.01 0.00 82 1013.5
20180621123537 64 311 3.0 10.0 0.00 0.01 0.00 83 1013.3
20180621123026 64 290 4.0 10.0 0.00 0.01 0.00 84 1013.5
20180621122535 64 294 5.0 10.0 0.00 0.01 0.00 84 1013.5
20180621122022 63 275 3.0 7.0 0.00 0.01 0.00 85 1013.6
20180621121533 63 305 2.0 8.0 0.00 0.01 0.00 86 1013.6
20180621121020 62 309 3.0 8.0 0.00 0.01 0.00 86 1013.7
20180621120534 62 316 2.0 8.0 0.00 0.01 0.00 87 1013.8
20180621120021 62 307 1.0 3.0 0.00 0.02 0.00 87 1013.7
20180621115533 61 301 1.0 3.0 0.00 0.02 0.00 88 1013.6
20180621115022 61 288 0.0 2.0 0.00 0.02 0.00 88 1013.6
20180621114529 61 290 0.0 3.0 0.00 0.02 0.00 88 1013.5
20180621114038 60 317 0.0 3.0 0.00 0.02 0.00 88 1013.5
20180621113526 60 277 0.0 2.0 0.00 0.02 0.00 88 1013.5
20180621113034 60 275 1.0 2.0 0.00 0.02 0.00 88 1013.5
20180621112521 60 274 1.0 2.0 0.00 0.02 0.00 88 1013.5
20180621112035 60 276 1.0 2.0 0.00 0.02 0.00 88 1013.5
20180621111524 60 281 0.0 2.0 0.00 0.02 0.00 88 1013.4
20180621111031 60 293 0.0 1.0 0.00 0.02 0.00 88 1013.3
20180621110538 60 293 0.0 1.0 0.00 0.02 0.00 87 1013.3
20180621110026 60 293 0.0 1.0 0.00 0.04 0.00 87 1013.3
20180621105535 60 293 0.0 1.0 0.00 0.04 0.00 87 1013.3
20180621105023 60 293 0.0 0.0 0.00 0.04 0.00 86 1013.2
20180621104533 60 293 0.0 2.0 0.00 0.04 0.00 86 1013.2
20180621104021 61 293 0.0 2.0 0.00 0.04 0.00 86 1013.3
20180621103534 61 301 0.0 2.0 0.00 0.04 0.00 86 1013.3
20180621103027 61 309 0.0 2.0 0.00 0.04 0.00 86 1013.3
20180621102520 61 311 0.0 2.0 0.00 0.04 0.00 86 1013.2
20180621102029 61 306 0.0 2.0 0.00 0.04 0.00 86 1013.2
20180621101521 61 310 0.0 2.0 0.00 0.04 0.00 86 1013.2
20180621101028 61 312 0.0 2.0 0.00 0.04 0.00 86 1013.2
20180621100521 61 313 0.0 2.0 0.00 0.04 0.00 86 1013.1
20180621100029 62 308 0.0 2.0 0.00 0.05 0.00 86 1013.1
20180621095520 62 301 0.0 2.0 0.00 0.05 0.00 85 1013.1
20180621095026 62 302 1.0 2.0 0.00 0.05 0.00 86 1013.2
20180621094538 62 301 1.0 2.0 0.00 0.05 0.00 86 1013.2
20180621094026 62 301 0.0 3.0 0.00 0.05 0.00 86 1013.2
20180621093536 62 306 1.0 3.0 0.00 0.05 0.00 86 1013.2
20180621093024 62 320 1.0 3.0 0.00 0.05 0.00 86 1013.2
20180621092534 62 309 1.0 3.0 0.00 0.05 0.00 86 1013.2
20180621092022 62 315 1.0 3.0 0.00 0.05 0.00 86 1013.2
20180621091535 63 302 1.0 5.0 0.00 0.05 0.00 86 1013.2
20180621091026 63 307 1.0 5.0 0.00 0.05 0.00 86 1013.3
20180621090536 63 309 2.0 6.0 0.00 0.05 0.00 86 1013.3
20180621090025 63 273 2.0 7.0 0.00 0.15 0.00 86 1013.3
20180621085535 63 309 2.0 7.0 0.00 0.15 0.00 86 1013.2
20180621085024 63 309 2.0 6.0 0.00 0.15 0.00 86 1013.1
20180621084534 63 287 2.0 6.0 0.00 0.15 0.00 86 1013.0
20180621084022 63 304 1.0 5.0 0.00 0.15 0.00 86 1012.9
20180621083552 63 309 1.0 5.0 0.00 0.15 0.00 86 1012.9